Tracking 32420 objects as of 9-Dec-2025
HD Live streaming from Space Station
objects crossing your sky now

ATLAS CENTAUR R/B

Track ATLAS CENTAUR R/B now!


NORAD ID: 9329
Int'l Code: 1976-073B
Perigee: 544.4 km
Apogee: 36,087.4 km
Inclination: 21.4 °
Period: 643.4 minutes
Semi major axis: 24686 km
RCS: 17.0572 m2 (large)
Launch date: July 22, 1976
Source: United States (US)
Launch site: AIR FORCE EASTERN TEST RANGE (AFETR)

Note: This is a ROCKET BODY
Your satellite tracking list
Your tracking list is empty




NASA's NSSDC Master Catalog

Two Line Element Set (TLE):
1 09329U 76073B   25339.68404630 -.00000016  00000-0 -41680-5 0  9992
2 09329  21.4021 242.9411 7198767 240.9959  30.4984  2.23821984272357
Source of the keplerian elements: AFSPC